User: anonymous   Login
Location: Chandrammap?lem
(16.9200°N, 81.0051°E)
Time: 21:37:46
(UTC+00:00)
Language:

Yuri Rocket - Orbit

View from above orbital plane
View from above orbital plane
View from above satellite
View from above satellite

Ground track
Ground track

The orbit data is extracted from the following two-line orbital elements,

1 10793U 78039B   24206.24758325  .00000416  00000-0  12543-3 0  9996
2 10793  28.2315 126.6396 0878897 219.4951 133.8214 13.06518105203067
Epoch (UTC): 24 July 2024 05:56:31
Eccentricity: 0.0878897
inclination: 28.2315°
perigee height: 567 km
apogee height: 1906 km
right ascension of ascending node: 126.6396°
argument of perigee: 219.4951°
revolutions per day: 13.06518105
mean anomaly at epoch: 133.8214°
orbit number at epoch: 20306

The dashed part of the orbit path shows where the satellite is in the earth's shadow,  

DLR